Portada
METAR-TAF:

METAR-TAF

Aeroports :

Knoxville Municipal Airport

Knoxville, Iowa, Estats Units d'Amèrica

latitud: 41-18N, longitud: 093-07W, altitud: 283 m

Observació

L'informe es va fer fa 25 minuts, a les 03:55 UTC
Vent 3 kt del Nord-Oest
Temperatura 23°C
Humitat 89%
Pressió 1017 hPa
Visibilitat: 16.1 km
Cel clar

METAR: KOXV 180355Z AUTO 32003KT 10SM CLR 23/21 A3004 RMK AO2

Hora: 23:20 (04:20 UTC)


TAF: manca

Observacions i pronòstics meteorològics de més de 4000 aeroports (METAR i TAF).

Les estacions disponibles són els punts grocs i vermells al mapa.

Posi el ratolí al punt desitjat per veure el nom de l'estació.

Feu clic per veure les observacions i els pronòstics meteorològics.

Per canviar el mapa: feu clic els botons verds amb una creu de color negre per apropar; al botó verd amb un guió per allunyar la imatge; o en les fletxes verdes per a mapes adjacents.


METAR-TAF: